Regional Weather Roundup
Issued by NWS

Home | Current Version | Previous Version | Text Only | Print | Product List | Glossary On
Versions: 1 2 3 4 5 6 7 8 9 10 11 12 13 14 15 16 17 18 19 20 21 22 23 24 25 26 27 28 29 30 31 32 33 34 35 36 37 38 39 40 41 42 43 44 45 46 47 48 49 50
000
ASCA42 TJSJ 050610
RWRPR
PUERTO RICO/U.S. VIRGIN ISLANDS HOURLY WEATHER ROUNDUP
NATIONAL WEATHER SERVICE SAN JUAN PR
200 AM AST WED AUG 05 2015

PRZ001-004-050700-
PUERTO RICO

CITY           SKY/WX    TMP DP  RH WIND       PRES   REMARKS
SAN JUAN LMM   PTCLDY    82  73  74 E7        30.04F
AGUADILLA      PTCLDY    75  72  88 E3        30.05F
$$

PRZ006-007-050700-
U.S. VIRGIN ISLANDS

CITY           SKY/WX    TMP DP  RH WIND       PRES   REMARKS
CHARLOTTE AMA  CLEAR     82  73  74 E10       30.03F
CHRISTIANSTED  CLEAR     79  73  83 NE8       30.03F
$$

HOURLY WEATHER ROUNDUP FOR THE NEWS MEDIA

CITY           SKY/WX    TMP DP  RH WIND       PRES   REMARKS
ORLANDO        CLEAR     78  76  93 CALM      30.10R
NEW YORK       MOCLDY    77  56  48 N5        29.91F
NEWARK         PTCLDY    74  59  59 N5        29.91S
CHICAGO        PTCLDY    67  58  72 SW3       30.03F
HARTFORD       CLEAR     66  65  96 CALM      29.88R
BOSTON         PTCLDY    71  62  73 W7        29.88S
DALLAS         PTCLDY    89  68  49 S14       29.92S HX  93
PHILADELPHIA   MOCLDY    80  52  37 CALM      29.93S
LOS ANGELES    CLEAR     72  63  73 SE6       29.91S
WASHINGTON DC  PTCLDY    70  69  97 W3        29.95S



USA.gov is the U.S. government's official web portal to all federal, state and local government web resources and services.